BEIDOU-3 M7 (C27)

Last updated on Sun Jun 21 2026 00:03:31 GMT+0000 (Coordinated Universal Time)

1 43107U 18003A 26171.03534061 -.00000089 00000+0 00000+0 0 9992 2 43107 54.3254 302.2159 0004851 94.5867 265.4639 1.86227890 57403
UTC large
Height (km)
Speed (km/s)
/
Latitude / Longitude
Inclination (degrees)
Orbital Period (minutes)
Azimuth
Elevation
Range (km)
Doppler Factor

Next 0 passes for location: London (51.5072 / 0.1276)

No passes found over London.
BEIDOU-3 M7 (C27)